,,PA_Meas_PMT16A,,PR_Meas_QMR101_102,,RH_Meas_QMH101,,SR_Meas_QMS101,,TA_Meas_QMH101,,GenWind,,GenWind,
time,status,PA,status,PR,status,RH,status,SR,status,TA,status,DirAvg,status,SpdAvg,
2013-02-06, 00:00:04,VALID,920.472,VALID,0,VALID,97.069,VALID,0,VALID,20.2699,VALID,73,VALID,0,
2013-02-06, 00:01:04,VALID,920.479,VALID,0,VALID,97.0842,VALID,0,VALID,20.2489,VALID,73,VALID,0,
2013-02-06, 00:02:04,VALID,920.454,VALID,0,VALID,97.0918,VALID,0,VALID,20.2489,VALID,73,VALID,0,
2013-02-06, 00:03:04,VALID,920.447,VALID,0,VALID,97.0842,VALID,0,VALID,20.2684,VALID,73,VALID,0,
2013-02-06, 00:04:04,VALID,920.473,VALID,0,VALID,97.0766,VALID,0,VALID,20.2684,VALID,73,VALID,0,
2013-02-06, 00:05:04,VALID,920.478,VALID,0,VALID,97.0842,VALID,0,VALID,20.2489,VALID,73,VALID,0,
2013-02-06, 00:06:04,VALID,920.466,VALID,0,VALID,97.0994,VALID,0,VALID,20.2504,VALID,73,VALID,0,
2013-02-06, 00:07:04,VALID,920.488,VALID,0,VALID,97.0994,VALID,0,VALID,20.2309,VALID,73,VALID,0.221484,
2013-02-06, 00:08:04,VALID,920.455,VALID,0,VALID,97.069,VALID,0,VALID,20.2114,VALID,73,VALID,0.162891,
2013-02-06, 00:09:04,VALID,920.455,VALID,0,VALID,97.0994,VALID,0,VALID,20.2309,VALID,73,VALID,0.330469,
2013-02-06, 00:10:04,VALID,920.449,VALID,0,VALID,97.1071,VALID,0,VALID,20.2114,VALID,73,VALID,0.353125,
2013-02-06, 00:11:04,VALID,920.429,VALID,0,VALID,97.0994,VALID,0,VALID,20.2324,VALID,73,VALID,0.242578,
2013-02-06, 00:12:04,VALID,920.439,VALID,0,VALID,97.0842,VALID,0,VALID,20.2114,VALID,73,VALID,0.235156,
2013-02-06, 00:13:04,VALID,920.425,VALID,0,VALID,97.0994,VALID,0,VALID,20.2114,VALID,73,VALID,0.594141,
2013-02-06, 00:14:04,VALID,920.424,VALID,0,VALID,97.0842,VALID,0,VALID,20.2114,VALID,73,VALID,0.60625,
2013-02-06, 00:15:04,VALID,920.389,VALID,0,VALID,97.1147,VALID,0,VALID,20.2309,VALID,73,VALID,0.634375,
2013-02-06, 00:16:04,VALID,920.371,VALID,0,VALID,97.1299,VALID,0,VALID,20.2309,VALID,73,VALID,0.420312,
2013-02-06, 00:17:04,VALID,920.395,VALID,0,VALID,97.1223,VALID,0,VALID,20.2309,VALID,73,VALID,0.287109,
2013-02-06, 00:18:04,VALID,920.346,VALID,0,VALID,97.0994,VALID,0,VALID,20.2504,VALID,73,VALID,0.386719,
2013-02-06, 00:19:04,VALID,920.343,VALID,0,VALID,97.1147,VALID,0,VALID,20.2714,VALID,73,VALID,0.09375,
2013-02-06, 00:20:04,VALID,920.312,VALID,0,VALID,97.1147,VALID,0,VALID,20.2504,VALID,73,VALID,0,
2013-02-06, 00:21:04,VALID,920.251,VALID,0,VALID,97.1299,VALID,0,VALID,20.2489,VALID,73,VALID,0,
2013-02-06, 00:22:04,VALID,920.249,VALID,0,VALID,97.1223,VALID,0,VALID,20.2699,VALID,73,VALID,0,
2013-02-06, 00:23:04,VALID,920.199,VALID,0,VALID,97.1452,VALID,0,VALID,20.2894,VALID,73,VALID,0.288281,
2013-02-06, 00:24:04,VALID,920.184,VALID,0,VALID,97.1147,VALID,0,VALID,20.2894,VALID,73,VALID,0.276953,
2013-02-06, 00:25:04,VALID,920.183,VALID,0,VALID,97.1223,VALID,0,VALID,20.3089,VALID,73,VALID,0,
2013-02-06, 00:26:04,VALID,920.205,VALID,0,VALID,97.1452,VALID,0,VALID,20.3284,VALID,73,VALID,0,
2013-02-06, 00:27:04,VALID,920.162,VALID,0,VALID,97.1223,VALID,0,VALID,20.3089,VALID,73,VALID,0,
2013-02-06, 00:28:04,VALID,920.15,VALID,0,VALID,97.1299,VALID,0,VALID,20.3089,VALID,73,VALID,0,
2013-02-06, 00:29:04,VALID,920.116,VALID,0,VALID,97.1376,VALID,0,VALID,20.2684,VALID,73,VALID,0,
2013-02-06, 00:30:04,VALID,920.107,VALID,0,VALID,97.1452,VALID,0,VALID,20.3089,VALID,73,VALID,0,
2013-02-06, 00:31:04,VALID,920.085,VALID,0,VALID,97.1071,VALID,0,VALID,20.3074,VALID,73,VALID,0,
2013-02-06, 00:32:04,VALID,920.099,VALID,0,VALID,97.1376,VALID,0,VALID,20.3074,VALID,73,VALID,0,
2013-02-06, 00:33:04,VALID,920.079,VALID,0,VALID,97.1376,VALID,0,VALID,20.3074,VALID,73,VALID,0,
2013-02-06, 00:34:04,VALID,920.051,VALID,0,VALID,97.1376,VALID,0,VALID,20.3479,VALID,73,VALID,0,
2013-02-06, 00:35:04,VALID,920.057,VALID,0,VALID,97.1223,VALID,0,VALID,20.3284,VALID,73,VALID,0,
2013-02-06, 00:36:04,VALID,920.027,VALID,0,VALID,97.1452,VALID,0,VALID,20.3284,VALID,73,VALID,0,
2013-02-06, 00:37:04,VALID,920.012,VALID,0,VALID,97.1299,VALID,0,VALID,20.3284,VALID,73,VALID,0,
2013-02-06, 00:38:04,VALID,920.01,VALID,0,VALID,97.1376,VALID,0,VALID,20.3479,VALID,73,VALID,0,
2013-02-06, 00:39:04,VALID,919.973,VALID,0,VALID,97.1299,VALID,0,VALID,20.3284,VALID,73,VALID,0,
2013-02-06, 00:40:04,VALID,919.978,VALID,0,VALID,97.1223,VALID,0,VALID,20.3284,VALID,73,VALID,0,
2013-02-06, 00:41:04,VALID,919.959,VALID,0,VALID,97.1299,VALID,0,VALID,20.3284,VALID,73,VALID,0,
2013-02-06, 00:42:04,VALID,919.923,VALID,0,VALID,97.1376,VALID,0,VALID,20.3089,VALID,73,VALID,0,
2013-02-06, 00:43:04,VALID,919.93,VALID,0,VALID,97.1528,VALID,0,VALID,20.2879,VALID,73,VALID,0.00703125,
2013-02-06, 00:44:04,VALID,919.923,VALID,0,VALID,97.1452,VALID,0,VALID,20.2879,VALID,73,VALID,0,
2013-02-06, 00:45:04,VALID,919.907,VALID,0,VALID,97.1452,VALID,0,VALID,20.3284,VALID,73,VALID,0,
2013-02-06, 00:46:04,VALID,919.895,VALID,0,VALID,97.1604,VALID,0,VALID,20.2879,VALID,73,VALID,0,
2013-02-06, 00:47:04,VALID,919.864,VALID,0,VALID,97.1528,VALID,0,VALID,20.3284,VALID,73,VALID,0,
2013-02-06, 00:48:04,VALID,919.867,VALID,0,VALID,97.1528,VALID,0,VALID,20.2879,VALID,73,VALID,0,
2013-02-06, 00:49:04,VALID,919.87,VALID,0,VALID,97.1604,VALID,0,VALID,20.3089,VALID,73,VALID,0,
2013-02-06, 00:50:04,VALID,919.839,VALID,0,VALID,97.1452,VALID,0,VALID,20.3284,VALID,73,VALID,0,
2013-02-06, 00:51:04,VALID,919.828,VALID,0,VALID,97.1604,VALID,0,VALID,20.3074,VALID,73,VALID,0,
2013-02-06, 00:52:04,VALID,919.829,VALID,0,VALID,97.1604,VALID,0,VALID,20.3074,VALID,73,VALID,0,
2013-02-06, 00:53:04,VALID,919.841,VALID,0,VALID,97.1681,VALID,0,VALID,20.3269,VALID,73,VALID,0,
2013-02-06, 00:54:04,VALID,919.826,VALID,0,VALID,97.1376,VALID,0,VALID,20.3058,VALID,73,VALID,0,
2013-02-06, 00:55:04,VALID,919.819,VALID,0,VALID,97.1604,VALID,0.107441,VALID,20.3074,VALID,73,VALID,0,
2013-02-06, 00:56:04,VALID,919.806,VALID,0,VALID,97.1528,VALID,0,VALID,20.3089,VALID,73,VALID,0,
2013-02-06, 00:57:04,VALID,919.807,VALID,0,VALID,97.1604,VALID,0.107441,VALID,20.2684,VALID,73,VALID,0,
2013-02-06, 00:58:04,VALID,919.803,VALID,0,VALID,97.1681,VALID,0.107441,VALID,20.2668,VALID,73,VALID,0,
2013-02-06, 00:59:04,VALID,919.789,VALID,0,VALID,97.1681,VALID,0,VALID,20.2879,VALID,73,VALID,0,
2013-02-06, 01:00:04,VALID,919.777,VALID,0,VALID,97.1528,VALID,0.107441,VALID,20.2668,VALID,73,VALID,0,
2013-02-06, 01:01:04,VALID,919.73,VALID,0,VALID,97.1604,VALID,0.107441,VALID,20.3269,VALID,73,VALID,0,
2013-02-06, 01:02:04,VALID,919.717,VALID,0,VALID,97.1681,VALID,0.107441,VALID,20.3464,VALID,73,VALID,0,
2013-02-06, 01:03:04,VALID,919.69,VALID,0,VALID,97.1757,VALID,0.107441,VALID,20.3058,VALID,73,VALID,0,
2013-02-06, 01:04:04,VALID,919.664,VALID,0,VALID,97.1833,VALID,0,VALID,20.3074,VALID,73,VALID,0,
2013-02-06, 01:05:04,VALID,919.678,VALID,0,VALID,97.1757,VALID,0,VALID,20.3269,VALID,73,VALID,0,
2013-02-06, 01:06:04,VALID,919.671,VALID,0,VALID,97.1909,VALID,0,VALID,20.2863,VALID,73,VALID,0,
2013-02-06, 01:07:04,VALID,919.647,VALID,0,VALID,97.1604,VALID,0,VALID,20.2848,VALID,73,VALID,0,
2013-02-06, 01:08:04,VALID,919.653,VALID,0,VALID,97.1681,VALID,0,VALID,20.3495,VALID,73,VALID,0,
2013-02-06, 01:09:04,VALID,919.653,VALID,0,VALID,97.1757,VALID,0,VALID,20.3464,VALID,73,VALID,0,
2013-02-06, 01:10:04,VALID,919.633,VALID,0,VALID,97.1604,VALID,0,VALID,20.369,VALID,73,VALID,0,
2013-02-06, 01:11:04,VALID,919.603,VALID,0,VALID,97.1681,VALID,0,VALID,20.3479,VALID,73,VALID,0,
2013-02-06, 01:12:04,VALID,919.583,VALID,0,VALID,97.1757,VALID,0,VALID,20.3269,VALID,73,VALID,0,
2013-02-06, 01:13:04,VALID,919.534,VALID,0,VALID,97.1757,VALID,0,VALID,20.3479,VALID,73,VALID,0,
2013-02-06, 01:14:04,VALID,919.568,VALID,0,VALID,97.1604,VALID,0,VALID,20.3269,VALID,73,VALID,0,
2013-02-06, 01:15:04,VALID,919.527,VALID,0,VALID,97.1757,VALID,0,VALID,20.3479,VALID,73,VALID,0,
2013-02-06, 01:16:04,VALID,919.502,VALID,0,VALID,97.1604,VALID,0,VALID,20.3479,VALID,73,VALID,0,
2013-02-06, 01:17:04,VALID,919.49,VALID,0,VALID,97.1757,VALID,0,VALID,20.3674,VALID,73,VALID,0,
2013-02-06, 01:18:04,VALID,919.441,VALID,0,VALID,97.1681,VALID,0,VALID,20.3479,VALID,73,VALID,0,
2013-02-06, 01:19:04,VALID,919.459,VALID,0,VALID,97.1757,VALID,0,VALID,20.3089,VALID,73,VALID,0,
2013-02-06, 01:20:04,VALID,919.437,VALID,0,VALID,97.1833,VALID,0,VALID,20.2894,VALID,73,VALID,0,
2013-02-06, 01:21:04,VALID,919.44,VALID,0,VALID,97.1604,VALID,0.107441,VALID,20.2879,VALID,73,VALID,0,
2013-02-06, 01:22:04,VALID,919.419,VALID,0,VALID,97.1757,VALID,0.107441,VALID,20.2668,VALID,73,VALID,0,
2013-02-06, 01:23:04,VALID,919.42,VALID,0,VALID,97.1833,VALID,0,VALID,20.2879,VALID,73,VALID,0,
2013-02-06, 01:24:04,VALID,919.368,VALID,0,VALID,97.1833,VALID,0.107441,VALID,20.2863,VALID,73,VALID,0,
2013-02-06, 01:25:04,VALID,919.376,VALID,0,VALID,97.1909,VALID,0.107441,VALID,20.2863,VALID,73,VALID,0,
2013-02-06, 01:26:04,VALID,919.368,VALID,0,VALID,97.1681,VALID,0,VALID,20.3464,VALID,73,VALID,0,
2013-02-06, 01:27:04,VALID,919.358,VALID,0,VALID,97.1757,VALID,0.107441,VALID,20.3253,VALID,73,VALID,0,
2013-02-06, 01:28:04,VALID,919.354,VALID,0,VALID,97.1986,VALID,0,VALID,20.3253,VALID,73,VALID,0,
2013-02-06, 01:29:04,VALID,919.354,VALID,0,VALID,97.2062,VALID,0.107441,VALID,20.3448,VALID,73,VALID,0,
2013-02-06, 01:30:04,VALID,919.334,VALID,0,VALID,97.1986,VALID,0,VALID,20.3659,VALID,73,VALID,0,
2013-02-06, 01:31:04,VALID,919.352,VALID,0,VALID,97.1833,VALID,0.107441,VALID,20.3464,VALID,73,VALID,0,
2013-02-06, 01:32:04,VALID,919.324,VALID,0,VALID,97.1909,VALID,0.107441,VALID,20.3253,VALID,73,VALID,0,
2013-02-06, 01:33:04,VALID,919.343,VALID,0,VALID,97.1681,VALID,0,VALID,20.3253,VALID,73,VALID,0,
2013-02-06, 01:34:04,VALID,919.33,VALID,0,VALID,97.1833,VALID,0.107441,VALID,20.3253,VALID,73,VALID,0,
2013-02-06, 01:35:04,VALID,919.332,VALID,0,VALID,97.1909,VALID,0,VALID,20.3074,VALID,73,VALID,0.370703,
2013-02-06, 01:36:04,VALID,919.33,VALID,0,VALID,97.1757,VALID,0,VALID,20.3269,VALID,73,VALID,0,
2013-02-06, 01:37:04,VALID,919.293,VALID,0,VALID,97.1681,VALID,0,VALID,20.3284,VALID,73,VALID,0.477344,
2013-02-06, 01:38:04,VALID,919.292,VALID,0,VALID,97.1986,VALID,0,VALID,20.3089,VALID,210,VALID,0.880859,
2013-02-06, 01:39:04,VALID,919.306,VALID,0,VALID,97.1986,VALID,0,VALID,20.2699,VALID,245,VALID,0.675,
2013-02-06, 01:40:04,VALID,919.267,VALID,0,VALID,97.1986,VALID,0,VALID,20.2309,VALID,239,VALID,0.645312,
2013-02-06, 01:41:04,VALID,919.258,VALID,0,VALID,97.1757,VALID,0,VALID,20.1903,VALID,214,VALID,1.00547,
2013-02-06, 01:42:04,VALID,919.232,VALID,0,VALID,97.2062,VALID,0,VALID,20.1903,VALID,241,VALID,0.679297,
2013-02-06, 01:43:04,VALID,919.243,VALID,0,VALID,97.2062,VALID,0,VALID,20.2098,VALID,241,VALID,0.167969,
2013-02-06, 01:44:04,VALID,919.218,VALID,0,VALID,97.2062,VALID,0,VALID,20.2504,VALID,50,VALID,0.746484,
2013-02-06, 01:45:04,VALID,919.222,VALID,0,VALID,97.2138,VALID,0,VALID,20.2699,VALID,50,VALID,0.298828,
2013-02-06, 01:46:04,VALID,919.203,VALID,0,VALID,97.1986,VALID,0,VALID,20.2098,VALID,50,VALID,0.408594,
2013-02-06, 01:47:04,VALID,919.216,VALID,0,VALID,97.2138,VALID,0,VALID,20.2114,VALID,50,VALID,0,
2013-02-06, 01:48:04,VALID,919.187,VALID,0,VALID,97.2138,VALID,0,VALID,20.2309,VALID,50,VALID,0.364844,
2013-02-06, 01:49:04,VALID,919.171,VALID,0,VALID,97.229,VALID,0,VALID,20.2114,VALID,50,VALID,0.528516,
2013-02-06, 01:50:04,VALID,919.168,VALID,0,VALID,97.2062,VALID,0,VALID,20.1724,VALID,252,VALID,1.09023,
2013-02-06, 01:51:04,VALID,919.166,VALID,0,VALID,97.2062,VALID,0,VALID,20.0928,VALID,240,VALID,0.785547,
2013-02-06, 01:52:04,VALID,919.196,VALID,0,VALID,97.2138,VALID,0.107441,VALID,20.0328,VALID,247,VALID,0.978906,
2013-02-06, 01:53:04,VALID,919.175,VALID,0,VALID,97.1986,VALID,0.107441,VALID,20.0328,VALID,272,VALID,0.805859,
2013-02-06, 01:54:04,VALID,919.168,VALID,0,VALID,97.2214,VALID,0.107441,VALID,20.0328,VALID,223,VALID,0.578516,
2013-02-06, 01:55:04,VALID,919.149,VALID,0,VALID,97.2138,VALID,0.107441,VALID,20.0343,VALID,234,VALID,0.914844,
2013-02-06, 01:56:04,VALID,919.158,VALID,0,VALID,97.2367,VALID,0.107441,VALID,20.0133,VALID,247,VALID,1.04766,
2013-02-06, 01:57:04,VALID,919.131,VALID,0,VALID,97.2443,VALID,0.107441,VALID,20.0343,VALID,287,VALID,1.08008,
2013-02-06, 01:58:04,VALID,919.102,VALID,0,VALID,97.2214,VALID,0,VALID,19.9938,VALID,227,VALID,1.00898,
2013-02-06, 01:59:04,VALID,919.125,VALID,0,VALID,97.2519,VALID,0,VALID,19.9953,VALID,244,VALID,0.685156,
2013-02-06, 02:00:04,VALID,919.099,VALID,0,VALID,97.2214,VALID,0,VALID,19.9743,VALID,244,VALID,0.88125,
2013-02-06, 02:01:04,VALID,919.082,VALID,0,VALID,97.2519,VALID,0.107441,VALID,19.9953,VALID,243,VALID,0.871094,
2013-02-06, 02:02:04,VALID,919.085,VALID,0,VALID,97.2595,VALID,0.107441,VALID,19.9953,VALID,237,VALID,1.21172,
2013-02-06, 02:03:04,VALID,919.095,VALID,0,VALID,97.2367,VALID,0.107441,VALID,19.9758,VALID,244,VALID,1.28164,
2013-02-06, 02:04:04,VALID,919.095,VALID,0,VALID,97.2443,VALID,0.107441,VALID,19.9368,VALID,244,VALID,0.978906,
2013-02-06, 02:05:04,VALID,919.067,VALID,0,VALID,97.2214,VALID,0.107441,VALID,19.9353,VALID,238,VALID,0.518359,
2013-02-06, 02:06:04,VALID,919.059,VALID,0,VALID,97.2672,VALID,0,VALID,19.9383,VALID,238,VALID,0.675391,
2013-02-06, 02:07:04,VALID,919.03,VALID,0,VALID,97.2367,VALID,0,VALID,19.9773,VALID,238,VALID,0.566406,
2013-02-06, 02:08:04,VALID,919.029,VALID,0,VALID,97.2443,VALID,0,VALID,19.9578,VALID,228,VALID,1.19414,
2013-02-06, 02:09:04,VALID,919.014,VALID,0,VALID,97.2443,VALID,0,VALID,19.9383,VALID,232,VALID,1.31758,
2013-02-06, 02:10:04,VALID,919.01,VALID,0,VALID,97.2748,VALID,0,VALID,19.9578,VALID,240,VALID,0.950391,
2013-02-06, 02:11:04,VALID,919.01,VALID,0,VALID,97.2748,VALID,0,VALID,19.9383,VALID,235,VALID,0.430859,
2013-02-06, 02:12:04,VALID,918.99,VALID,0,VALID,97.2519,VALID,0,VALID,19.9578,VALID,235,VALID,0.350391,
2013-02-06, 02:13:04,VALID,918.977,VALID,0,VALID,97.2595,VALID,0,VALID,19.9578,VALID,247,VALID,1.63789,
2013-02-06, 02:14:04,VALID,918.968,VALID,0,VALID,97.2595,VALID,0,VALID,19.8993,VALID,258,VALID,2.1832,
2013-02-06, 02:15:04,VALID,918.929,VALID,0,VALID,97.2595,VALID,0,VALID,19.8993,VALID,258,VALID,0.807813,
2013-02-06, 02:16:04,VALID,918.952,VALID,0,VALID,97.2595,VALID,0,VALID,19.8783,VALID,246,VALID,0.889453,
2013-02-06, 02:17:04,VALID,918.948,VALID,0,VALID,97.2672,VALID,0,VALID,19.9188,VALID,246,VALID,0.659375,
2013-02-06, 02:18:04,VALID,918.911,VALID,0,VALID,97.2748,VALID,0,VALID,19.8978,VALID,256,VALID,0.779688,
2013-02-06, 02:19:04,VALID,918.943,VALID,0,VALID,97.2824,VALID,0,VALID,19.8783,VALID,221,VALID,0.472656,
2013-02-06, 02:20:04,VALID,918.967,VALID,0,VALID,97.2748,VALID,0,VALID,19.9188,VALID,273,VALID,0.4625,
2013-02-06, 02:21:04,VALID,918.942,VALID,0,VALID,97.2748,VALID,0,VALID,19.9188,VALID,271,VALID,1.15,
2013-02-06, 02:22:04,VALID,918.92,VALID,0,VALID,97.2824,VALID,0,VALID,19.8993,VALID,256,VALID,0.824609,
2013-02-06, 02:23:04,VALID,918.932,VALID,0,VALID,97.2595,VALID,0,VALID,19.8993,VALID,252,VALID,1.66211,
2013-02-06, 02:24:04,VALID,918.951,VALID,0,VALID,97.2672,VALID,0,VALID,19.8603,VALID,249,VALID,0.802344,
2013-02-06, 02:25:04,VALID,918.934,VALID,0,VALID,97.29,VALID,0,VALID,19.8993,VALID,358,VALID,0.678125,
2013-02-06, 02:26:04,VALID,918.939,VALID,0,VALID,97.29,VALID,0,VALID,19.9383,VALID,358,VALID,0.205859,
2013-02-06, 02:27:04,VALID,918.914,VALID,0,VALID,97.2824,VALID,0,VALID,19.9578,VALID,358,VALID,0,
2013-02-06, 02:28:04,VALID,918.925,VALID,0,VALID,97.2977,VALID,0,VALID,19.9578,VALID,358,VALID,0.209375,
2013-02-06, 02:29:04,VALID,918.893,VALID,0,VALID,97.2824,VALID,0,VALID,19.9383,VALID,358,VALID,0.397266,
2013-02-06, 02:30:04,VALID,918.906,VALID,0,VALID,97.2748,VALID,0,VALID,19.9578,VALID,358,VALID,0,
2013-02-06, 02:31:04,VALID,918.891,VALID,0,VALID,97.2824,VALID,0,VALID,19.9578,VALID,358,VALID,0,
2013-02-06, 02:32:04,VALID,918.9,VALID,0,VALID,97.29,VALID,0,VALID,19.9578,VALID,358,VALID,0,
2013-02-06, 02:33:04,VALID,918.889,VALID,0,VALID,97.2672,VALID,0,VALID,19.9773,VALID,358,VALID,0,
2013-02-06, 02:34:04,VALID,918.884,VALID,0,VALID,97.2748,VALID,0,VALID,19.9968,VALID,358,VALID,0,
2013-02-06, 02:35:04,VALID,918.867,VALID,0,VALID,97.2595,VALID,0,VALID,19.9968,VALID,358,VALID,0,
2013-02-06, 02:36:04,VALID,918.865,VALID,0,VALID,97.2824,VALID,0,VALID,19.9758,VALID,358,VALID,0,
2013-02-06, 02:37:04,VALID,918.838,VALID,0,VALID,97.2824,VALID,0,VALID,19.9773,VALID,357,VALID,0.830859,
2013-02-06, 02:38:04,VALID,918.832,VALID,0,VALID,97.2748,VALID,0,VALID,19.9173,VALID,277,VALID,0.0554687,
2013-02-06, 02:39:04,VALID,918.849,VALID,0,VALID,97.2824,VALID,0,VALID,19.9383,VALID,277,VALID,0.388672,
2013-02-06, 02:40:04,VALID,918.833,VALID,0,VALID,97.2977,VALID,0,VALID,19.9578,VALID,277,VALID,0,
2013-02-06, 02:41:04,VALID,918.827,VALID,0,VALID,97.2824,VALID,0,VALID,19.9758,VALID,277,VALID,0.332812,
2013-02-06, 02:42:04,VALID,918.812,VALID,0,VALID,97.2977,VALID,0,VALID,19.9968,VALID,276,VALID,0.0753906,
2013-02-06, 02:43:04,VALID,918.852,VALID,0,VALID,97.2824,VALID,0,VALID,19.9563,VALID,277,VALID,0.348828,
2013-02-06, 02:44:04,VALID,918.826,VALID,0,VALID,97.2977,VALID,0,VALID,19.9773,VALID,277,VALID,0.359766,
2013-02-06, 02:45:04,VALID,918.856,VALID,0,VALID,97.2977,VALID,0,VALID,19.9563,VALID,277,VALID,0,
2013-02-06, 02:46:04,VALID,918.833,VALID,0,VALID,97.29,VALID,0,VALID,19.9773,VALID,277,VALID,0,
2013-02-06, 02:47:04,VALID,918.82,VALID,0,VALID,97.29,VALID,0,VALID,19.9953,VALID,277,VALID,0,
2013-02-06, 02:48:04,VALID,918.842,VALID,0,VALID,97.2977,VALID,0,VALID,19.9758,VALID,277,VALID,0.0109375,
2013-02-06, 02:49:04,VALID,918.831,VALID,0,VALID,97.29,VALID,0,VALID,19.9953,VALID,277,VALID,0,
2013-02-06, 02:50:04,VALID,918.828,VALID,0,VALID,97.2824,VALID,0,VALID,19.9953,VALID,277,VALID,0,
2013-02-06, 02:51:04,VALID,918.821,VALID,0,VALID,97.3053,VALID,0,VALID,19.9953,VALID,304,VALID,0.355859,
2013-02-06, 02:52:04,VALID,918.817,VALID,0,VALID,97.29,VALID,0,VALID,19.9578,VALID,360,VALID,0.0121094,
2013-02-06, 02:53:04,VALID,918.82,VALID,0,VALID,97.2824,VALID,0,VALID,19.9773,VALID,353,VALID,0.28125,
2013-02-06, 02:54:04,VALID,918.786,VALID,0,VALID,97.29,VALID,0,VALID,19.9578,VALID,342,VALID,0.394922,
2013-02-06, 02:55:04,VALID,918.81,VALID,0,VALID,97.2824,VALID,0,VALID,19.9383,VALID,309,VALID,0.454297,
2013-02-06, 02:56:04,VALID,918.796,VALID,0,VALID,97.2824,VALID,0,VALID,19.9173,VALID,242,VALID,0.716406,
2013-02-06, 02:57:04,VALID,918.785,VALID,0,VALID,97.2824,VALID,0,VALID,19.9773,VALID,242,VALID,0.0875,
2013-02-06, 02:58:04,VALID,918.78,VALID,0,VALID,97.2824,VALID,0,VALID,19.9563,VALID,242,VALID,0,
2013-02-06, 02:59:04,VALID,918.759,VALID,0,VALID,97.29,VALID,0,VALID,19.9563,VALID,242,VALID,0,
2013-02-06, 03:00:04,VALID,918.749,VALID,0,VALID,97.2977,VALID,0,VALID,19.9968,VALID,242,VALID,0,
2013-02-06, 03:01:04,VALID,918.746,VALID,0,VALID,97.2824,VALID,0,VALID,20.0163,VALID,242,VALID,0,
2013-02-06, 03:02:04,VALID,918.742,VALID,0,VALID,97.3053,VALID,0,VALID,20.0358,VALID,242,VALID,0.0792969,
2013-02-06, 03:03:04,VALID,918.736,VALID,0,VALID,97.2748,VALID,0,VALID,20.0358,VALID,242,VALID,0,
2013-02-06, 03:04:04,VALID,918.732,VALID,0,VALID,97.3129,VALID,0,VALID,20.0358,VALID,242,VALID,0,
2013-02-06, 03:05:04,VALID,918.722,VALID,0,VALID,97.29,VALID,0,VALID,20.0163,VALID,242,VALID,0,
2013-02-06, 03:06:04,VALID,918.739,VALID,0,VALID,97.2977,VALID,0,VALID,19.9383,VALID,242,VALID,0.498437,
2013-02-06, 03:07:04,VALID,918.727,VALID,0,VALID,97.3129,VALID,0,VALID,19.8978,VALID,242,VALID,0.307813,
2013-02-06, 03:08:04,VALID,918.697,VALID,0,VALID,97.2824,VALID,0,VALID,19.9173,VALID,39,VALID,0.719531,
2013-02-06, 03:09:04,VALID,918.721,VALID,0,VALID,97.29,VALID,0,VALID,19.9368,VALID,39,VALID,0.747266,
2013-02-06, 03:10:04,VALID,918.708,VALID,0,VALID,97.3053,VALID,0,VALID,19.9773,VALID,13,VALID,1.05703,
2013-02-06, 03:11:04,VALID,918.693,VALID,0,VALID,97.3053,VALID,0,VALID,19.9773,VALID,10,VALID,0,
2013-02-06, 03:12:04,VALID,918.699,VALID,0,VALID,97.3129,VALID,0,VALID,19.9578,VALID,10,VALID,0.0648438,
2013-02-06, 03:13:04,VALID,918.7,VALID,0,VALID,97.2977,VALID,0,VALID,19.9383,VALID,10,VALID,0.0269531,
2013-02-06, 03:14:04,VALID,918.694,VALID,0,VALID,97.29,VALID,0,VALID,19.9368,VALID,10,VALID,0,
2013-02-06, 03:15:04,VALID,918.67,VALID,0,VALID,97.2977,VALID,0,VALID,19.9368,VALID,10,VALID,0,
2013-02-06, 03:16:04,VALID,918.651,VALID,0,VALID,97.29,VALID,0,VALID,19.9383,VALID,10,VALID,0.203906,
2013-02-06, 03:17:04,VALID,918.665,VALID,0,VALID,97.3053,VALID,0,VALID,19.9173,VALID,10,VALID,0.650781,
2013-02-06, 03:18:05,VALID,918.666,VALID,0,VALID,97.2977,VALID,0,VALID,19.9383,VALID,10,VALID,0.626172,
2013-02-06, 03:19:05,VALID,918.679,VALID,0,VALID,97.2977,VALID,0,VALID,19.8993,VALID,22,VALID,0.739453,
2013-02-06, 03:20:05,VALID,918.64,VALID,0,VALID,97.3129,VALID,0,VALID,19.8993,VALID,23,VALID,0.700391,
2013-02-06, 03:21:05,VALID,918.688,VALID,0,VALID,97.29,VALID,0,VALID,19.8798,VALID,332,VALID,1.02852,
2013-02-06, 03:22:05,VALID,918.658,VALID,0,VALID,97.3129,VALID,0,VALID,19.8603,VALID,357,VALID,0.732813,
2013-02-06, 03:23:05,VALID,918.664,VALID,0,VALID,97.29,VALID,0,VALID,19.8588,VALID,1,VALID,0.921875,
2013-02-06, 03:24:05,VALID,918.643,VALID,0,VALID,97.3129,VALID,0.107441,VALID,19.8588,VALID,13,VALID,0.747266,
2013-02-06, 03:25:05,VALID,918.617,VALID,0,VALID,97.3053,VALID,0,VALID,19.8408,VALID,7,VALID,0.942187,
2013-02-06, 03:26:05,VALID,918.602,VALID,0,VALID,97.2977,VALID,0,VALID,19.8393,VALID,25,VALID,0.844531,
2013-02-06, 03:27:05,VALID,918.62,VALID,0,VALID,97.2977,VALID,0,VALID,19.8798,VALID,22,VALID,0.420312,
2013-02-06, 03:28:05,VALID,918.608,VALID,0,VALID,97.3205,VALID,0,VALID,19.8393,VALID,3,VALID,0.657422,
2013-02-06, 03:29:05,VALID,918.585,VALID,0,VALID,97.3129,VALID,0,VALID,19.8003,VALID,347,VALID,0.305469,
2013-02-06, 03:30:05,VALID,918.592,VALID,0,VALID,97.2977,VALID,0,VALID,19.8213,VALID,1,VALID,0.824219,
2013-02-06, 03:31:05,VALID,918.59,VALID,0,VALID,97.3129,VALID,0,VALID,19.8213,VALID,44,VALID,0.832031,
2013-02-06, 03:32:05,VALID,918.609,VALID,0,VALID,97.3053,VALID,0,VALID,19.8408,VALID,44,VALID,0.174609,
2013-02-06, 03:33:05,VALID,918.587,VALID,0,VALID,97.2977,VALID,0,VALID,19.8798,VALID,44,VALID,0.293359,
2013-02-06, 03:34:05,VALID,918.594,VALID,0,VALID,97.3129,VALID,0,VALID,19.8588,VALID,44,VALID,0.0308594,
2013-02-06, 03:35:05,VALID,918.575,VALID,0,VALID,97.3129,VALID,0,VALID,19.8798,VALID,44,VALID,0,
2013-02-06, 03:36:05,VALID,918.635,VALID,0,VALID,97.3129,VALID,0,VALID,19.8993,VALID,44,VALID,0.155859,
2013-02-06, 03:37:05,VALID,918.604,VALID,0,VALID,97.3205,VALID,0,VALID,19.8588,VALID,336,VALID,0.611719,
2013-02-06, 03:38:05,VALID,918.587,VALID,0,VALID,97.3205,VALID,0,VALID,19.8408,VALID,306,VALID,0.465234,
2013-02-06, 03:39:05,VALID,918.587,VALID,0,VALID,97.3281,VALID,0,VALID,19.8213,VALID,306,VALID,0.316016,
2013-02-06, 03:40:05,VALID,918.615,VALID,0,VALID,97.3281,VALID,0,VALID,19.8393,VALID,306,VALID,0.155469,
2013-02-06, 03:41:05,VALID,918.608,VALID,0,VALID,97.3129,VALID,0,VALID,19.8603,VALID,306,VALID,0,
2013-02-06, 03:42:05,VALID,918.616,VALID,0,VALID,97.3053,VALID,0,VALID,19.8798,VALID,306,VALID,0.0179687,
2013-02-06, 03:43:05,VALID,918.626,VALID,0,VALID,97.3358,VALID,0,VALID,19.8588,VALID,306,VALID,0.327344,
2013-02-06, 03:44:05,VALID,918.617,VALID,0,VALID,97.3205,VALID,0,VALID,19.8198,VALID,307,VALID,1.06523,
2013-02-06, 03:45:05,VALID,918.659,VALID,0,VALID,97.3129,VALID,0,VALID,19.7823,VALID,291,VALID,0.335547,
2013-02-06, 03:46:05,VALID,918.658,VALID,0,VALID,97.3358,VALID,0,VALID,19.7808,VALID,291,VALID,0.251172,
2013-02-06, 03:47:05,VALID,918.626,VALID,0,VALID,97.3205,VALID,0,VALID,19.8018,VALID,291,VALID,0.184375,
2013-02-06, 03:48:05,VALID,918.655,VALID,0,VALID,97.3205,VALID,0,VALID,19.8003,VALID,291,VALID,0.216016,
2013-02-06, 03:49:05,VALID,918.642,VALID,0,VALID,97.3281,VALID,0,VALID,19.8003,VALID,291,VALID,0.453125,
2013-02-06, 03:50:05,VALID,918.642,VALID,0,VALID,97.3281,VALID,0,VALID,19.8408,VALID,29,VALID,0.560938,